Location: Marcé
(47.5801°N, 0.3280°W)
Time: 05:36:49
(UTC+01:00)

Altair - Pass Details

Date: 16 December 2021
Orbit: 1501 x 1683 km, 47.2° (Epoch: 21 January)

Event Time Altitude Azimuth Distance (km) Brightness Sun altitude
Rises 21:38:35 0° 283° (WNW) 4,681 10.8 -43.9°
Reaches altitude 10° 21:46:10 10° 243° (WSW) 3,658 9.8 -45.1°
Maximum altitude 21:46:50 10° 239° (WSW) 3,648 9.8 -45.3°
Drops below altitude 10° 21:47:30 10° 234° (SW) 3,653 9.8 -45.4°
Enters shadow 21:53:43 - 200° (SSW) 4,351 9.9 -46.4°
Sets 21:55:04 0° 194° (SSW) 4,620 - -46.6°
